CCM62PM LFKJ-LFML

Flight info

Callsign CCM62PM
Flight time 0h 49m
Altitude 24000
Route TINOT
Aircraft A320/M-SDE2E3FGIJ1RWY/HB1

Departure

Time 2026-04-23 20:26
Airport Ajaccio Napoléon Bonaparte airport (LFKJ)

Arrival

Time 2026-04-23 21:15
Airport Marseille Provence Airport (LFML)
Time Latitude Longitude Altitude Speed Heading
2026-04-23 20:02 41.92013 8.79612 26 ft 0 kts 337°
2026-04-23 20:19 41.92021 8.79612 26 ft 2 kts
2026-04-23 20:19 41.92022 8.79621 26 ft 1 kts 74°
2026-04-23 20:20 41.92020 8.79672 26 ft 9 kts 68°
2026-04-23 20:20 41.92090 8.79726 26 ft 15 kts 24°
2026-04-23 20:20 41.92191 8.79789 26 ft 17 kts 25°
2026-04-23 20:20 41.92262 8.79834 26 ft 17 kts 24°
2026-04-23 20:21 41.92410 8.79925 26 ft 19 kts 25°
2026-04-23 20:21 41.92531 8.80001 26 ft 20 kts 24°
2026-04-23 20:21 41.92659 8.80080 26 ft 21 kts 24°
2026-04-23 20:21 41.92748 8.80140 26 ft 21 kts 32°
2026-04-23 20:22 41.92858 8.80266 27 ft 20 kts 44°
2026-04-23 20:22 41.92953 8.80402 31 ft 11 kts 59°
2026-04-23 20:22 41.92964 8.80462 31 ft 0 kts 93°
2026-04-23 20:23 41.92962 8.80471 32 ft 5 kts 103°
2026-04-23 20:23 41.92951 8.80548 32 ft 10 kts 84°
2026-04-23 20:24 41.93001 8.80626 31 ft 13 kts 24°
2026-04-23 20:24 41.93097 8.80651 32 ft 13 kts
2026-04-23 20:24 41.93152 8.80676 31 ft 8 kts 75°
2026-04-23 20:24 41.93126 8.80706 32 ft 4 kts 201°
2026-04-23 20:25 41.93105 8.80692 32 ft 0 kts 205°
2026-04-23 20:25 41.93061 8.80664 32 ft 38 kts 205°
2026-04-23 20:25 41.92543 8.80342 24 ft 121 kts 205°
2026-04-23 20:26 41.91596 8.79753 178 ft 166 kts 205°
2026-04-23 20:26 41.90518 8.79054 826 ft 180 kts 204°
2026-04-23 20:26 41.89355 8.78184 1336 ft 204 kts 214°
2026-04-23 20:26 41.88120 8.77025 1855 ft 230 kts 214°
2026-04-23 20:27 41.86739 8.75738 2525 ft 252 kts 214°
2026-04-23 20:27 41.85261 8.74363 3475 ft 263 kts 214°
2026-04-23 20:27 41.83755 8.72966 4502 ft 270 kts 214°
2026-04-23 20:27 41.82171 8.71499 5519 ft 277 kts 214°
2026-04-23 20:28 41.80557 8.70007 6505 ft 285 kts 213°
2026-04-23 20:28 41.78926 8.68516 7446 ft 291 kts 213°
2026-04-23 20:28 41.77233 8.66990 8442 ft 295 kts 213°
2026-04-23 20:28 41.75487 8.65426 9459 ft 300 kts 213°
2026-04-23 20:29 41.73792 8.63826 10397 ft 306 kts 221°
2026-04-23 20:29 41.72520 8.61532 11234 ft 311 kts 248°
2026-04-23 20:29 41.72108 8.58715 12116 ft 311 kts 275°
2026-04-23 20:29 41.72624 8.55947 13004 ft 309 kts 299°
2026-04-23 20:30 41.73679 8.53311 13355 ft 332 kts 303°
2026-04-23 20:30 41.76041 8.47804 14775 ft 347 kts 303°
2026-04-23 20:30 41.77247 8.44994 15555 ft 350 kts 303°
2026-04-23 20:31 41.78477 8.42101 16348 ft 354 kts 302°
2026-04-23 20:31 41.79678 8.39258 17123 ft 358 kts 302°
2026-04-23 20:31 41.80905 8.36335 17897 ft 361 kts 302°
2026-04-23 20:31 41.82141 8.33383 18628 ft 365 kts 301°
2026-04-23 20:32 41.83378 8.30405 19322 ft 368 kts 300°
2026-04-23 20:32 41.84418 8.27239 19958 ft 373 kts 294°
2026-04-23 20:32 41.85402 8.23997 20623 ft 377 kts 294°
2026-04-23 20:32 41.86397 8.20727 21264 ft 381 kts 294°
2026-04-23 20:33 41.87405 8.17422 21900 ft 385 kts 294°
2026-04-23 20:33 41.88421 8.14078 22549 ft 389 kts 294°
2026-04-23 20:33 41.89447 8.10696 23189 ft 393 kts 294°
2026-04-23 20:33 41.90484 8.07280 23809 ft 397 kts 294°
2026-04-23 20:34 41.91531 8.03832 24086 ft 400 kts 294°
2026-04-23 20:34 41.92572 8.00390 24164 ft 393 kts 294°
2026-04-23 20:34 41.93575 7.97059 24181 ft 377 kts 294°
2026-04-23 20:34 41.94548 7.93818 24180 ft 374 kts 294°
2026-04-23 20:35 41.95521 7.90585 24179 ft 373 kts 294°
2026-04-23 20:35 41.96494 7.87354 24184 ft 373 kts 294°
2026-04-23 20:35 41.97464 7.84128 24185 ft 373 kts 294°
2026-04-23 20:35 41.98438 7.80896 24185 ft 373 kts 294°
2026-04-23 20:36 41.99412 7.77667 24186 ft 373 kts 294°
2026-04-23 20:36 42.00384 7.74436 24188 ft 373 kts 294°
2026-04-23 20:36 42.01351 7.71207 24188 ft 373 kts 294°
2026-04-23 20:36 42.02317 7.67973 24187 ft 373 kts 293°
2026-04-23 20:37 42.03280 7.64741 24187 ft 373 kts 293°
2026-04-23 20:37 42.04243 7.61503 24188 ft 373 kts 293°
2026-04-23 20:37 42.05204 7.58268 24188 ft 373 kts 293°
2026-04-23 20:37 42.06167 7.55035 24190 ft 372 kts 293°
2026-04-23 20:38 42.07130 7.51800 24195 ft 372 kts 293°
2026-04-23 20:38 42.08089 7.48574 24197 ft 371 kts 293°
2026-04-23 20:38 42.09048 7.45348 24196 ft 371 kts 293°
2026-04-23 20:38 42.10004 7.42124 24200 ft 371 kts 293°
2026-04-23 20:39 42.10958 7.38890 24199 ft 371 kts 293°
2026-04-23 20:39 42.11908 7.35664 24200 ft 371 kts 293°
2026-04-23 20:39 42.12860 7.32432 24199 ft 371 kts 293°
2026-04-23 20:39 42.13809 7.29207 24202 ft 371 kts 293°
2026-04-23 20:40 42.14758 7.25978 24202 ft 371 kts 293°
2026-04-23 20:40 42.15708 7.22744 24202 ft 371 kts 293°
2026-04-23 20:40 42.16656 7.19512 24201 ft 371 kts 293°
2026-04-23 20:40 42.17604 7.16278 24202 ft 371 kts 293°
2026-04-23 20:41 42.18550 7.13049 24198 ft 371 kts 293°
2026-04-23 20:41 42.19498 7.09811 24191 ft 371 kts 293°
2026-04-23 20:41 42.20446 7.06573 24188 ft 371 kts 292°
2026-04-23 20:41 42.21391 7.03332 24187 ft 372 kts 292°
2026-04-23 20:42 42.22335 7.00085 24185 ft 372 kts 292°
2026-04-23 20:42 42.23278 6.96832 24188 ft 372 kts 292°
2026-04-23 20:42 42.24223 6.93584 24191 ft 372 kts 292°
2026-04-23 20:42 42.25169 6.90336 24191 ft 372 kts 292°
2026-04-23 20:43 42.26114 6.87081 24194 ft 372 kts 293°
2026-04-23 20:43 42.27051 6.83831 24178 ft 372 kts 293°
2026-04-23 20:43 42.27981 6.80595 24189 ft 366 kts 293°
2026-04-23 20:43 42.28899 6.77403 24191 ft 364 kts 293°
2026-04-23 20:44 42.29814 6.74219 24190 ft 363 kts 293°
2026-04-23 20:44 42.30729 6.71043 24191 ft 363 kts 293°
2026-04-23 20:44 42.31645 6.67871 24189 ft 363 kts 293°
2026-04-23 20:44 42.32561 6.64694 24191 ft 363 kts 293°
2026-04-23 20:45 42.33470 6.61519 24190 ft 363 kts 292°
2026-04-23 20:45 42.34377 6.58340 24189 ft 363 kts 292°
2026-04-23 20:45 42.35273 6.55201 24187 ft 363 kts 292°
2026-04-23 20:45 42.36183 6.52011 24201 ft 363 kts 292°
2026-04-23 20:46 42.37092 6.48829 24194 ft 363 kts 292°
2026-04-23 20:46 42.38002 6.45641 24187 ft 363 kts 294°
2026-04-23 20:46 42.38896 6.42497 24190 ft 354 kts 294°
2026-04-23 20:46 42.39772 6.39409 24187 ft 351 kts 294°
2026-04-23 20:47 42.40644 6.36335 24192 ft 350 kts 294°
2026-04-23 20:47 42.41513 6.33268 24191 ft 349 kts 294°
2026-04-23 20:47 42.42382 6.30201 24189 ft 349 kts 294°
2026-04-23 20:47 42.43250 6.27128 24192 ft 349 kts 294°
2026-04-23 20:48 42.44117 6.24055 24191 ft 349 kts 294°
2026-04-23 20:48 42.44982 6.20985 24192 ft 351 kts 294°
2026-04-23 20:48 42.45857 6.17890 24194 ft 353 kts 294°
2026-04-23 20:48 42.46735 6.14784 24193 ft 354 kts 294°
2026-04-23 20:49 42.47615 6.11669 24188 ft 354 kts 294°
2026-04-23 20:49 42.48491 6.08553 24182 ft 354 kts 294°
2026-04-23 20:49 42.49353 6.05468 24203 ft 346 kts 295°
2026-04-23 20:49 42.50198 6.02435 24201 ft 342 kts 295°
2026-04-23 20:50 42.51040 5.99422 24203 ft 341 kts 295°
2026-04-23 20:50 42.51879 5.96427 24204 ft 341 kts 295°
2026-04-23 20:50 42.52722 5.93413 24213 ft 341 kts 295°
2026-04-23 20:50 42.53564 5.90402 24211 ft 341 kts 295°
2026-04-23 20:51 42.54400 5.87401 24209 ft 341 kts 295°
2026-04-23 20:51 42.55234 5.84394 24209 ft 341 kts 295°
2026-04-23 20:51 42.56069 5.81377 24210 ft 341 kts 295°
2026-04-23 20:51 42.56904 5.78361 24212 ft 341 kts 295°
2026-04-23 20:52 42.57757 5.75299 23879 ft 355 kts 295°
2026-04-23 20:52 42.58637 5.72147 23206 ft 356 kts 295°
2026-04-23 20:52 42.59503 5.69020 22744 ft 351 kts 294°
2026-04-23 20:52 42.60349 5.65942 22273 ft 346 kts 294°
2026-04-23 20:53 42.61184 5.62895 21822 ft 342 kts 294°
2026-04-23 20:53 42.62010 5.59881 21378 ft 338 kts 294°
2026-04-23 20:53 42.62826 5.56906 20934 ft 335 kts 294°
2026-04-23 20:53 42.63639 5.53949 20492 ft 332 kts 294°
2026-04-23 20:54 42.64442 5.51023 20059 ft 330 kts 294°
2026-04-23 20:54 42.65241 5.48116 19631 ft 328 kts 294°
2026-04-23 20:54 42.66038 5.45220 19206 ft 326 kts 294°
2026-04-23 20:54 42.66825 5.42345 18782 ft 325 kts 293°
2026-04-23 20:55 42.67608 5.39473 18343 ft 324 kts 293°
2026-04-23 20:55 42.68386 5.36608 17902 ft 322 kts 293°
2026-04-23 20:55 42.69268 5.33845 17496 ft 317 kts 302°
2026-04-23 20:55 42.70565 5.31465 17097 ft 311 kts 316°
2026-04-23 20:56 42.72214 5.29601 16854 ft 309 kts 328°
2026-04-23 20:56 42.74069 5.28115 16585 ft 309 kts 330°
2026-04-23 20:56 42.75926 5.26643 16312 ft 309 kts 330°
2026-04-23 20:56 42.77782 5.25165 16041 ft 309 kts 330°
2026-04-23 20:57 42.79608 5.23705 15771 ft 308 kts 330°
2026-04-23 20:57 42.81456 5.22224 15496 ft 308 kts 330°
2026-04-23 20:57 42.83304 5.20741 15222 ft 308 kts 330°
2026-04-23 20:57 42.85145 5.19263 14950 ft 308 kts 330°
2026-04-23 20:58 42.86992 5.17784 14687 ft 308 kts 330°
2026-04-23 20:58 42.88842 5.16303 14402 ft 308 kts 330°
2026-04-23 20:58 42.90684 5.14822 14135 ft 308 kts 330°
2026-04-23 20:58 42.92533 5.13334 13842 ft 308 kts 330°
2026-04-23 20:59 42.94422 5.11964 13567 ft 307 kts 339°
2026-04-23 20:59 42.96462 5.11124 13296 ft 306 kts 346°
2026-04-23 20:59 42.98521 5.10415 13026 ft 305 kts 346°
2026-04-23 20:59 43.00579 5.09706 12754 ft 304 kts 346°
2026-04-23 21:00 43.02632 5.08996 12495 ft 304 kts 347°
2026-04-23 21:00 43.04673 5.08287 12225 ft 302 kts 346°
2026-04-23 21:00 43.06709 5.07577 11958 ft 302 kts 346°
2026-04-23 21:00 43.08744 5.06866 11689 ft 301 kts 346°
2026-04-23 21:01 43.10774 5.06154 11426 ft 301 kts 346°
2026-04-23 21:01 43.12798 5.05446 11165 ft 301 kts 346°
2026-04-23 21:01 43.14828 5.04734 10895 ft 301 kts 346°
2026-04-23 21:01 43.16853 5.04024 10631 ft 300 kts 346°
2026-04-23 21:02 43.18191 5.03556 10454 ft 300 kts 346°
2026-04-23 21:02 43.20886 5.02722 10100 ft 294 kts 354°
2026-04-23 21:02 43.22919 5.02548 9827 ft 293 kts 358°
2026-04-23 21:02 43.24952 5.02403 9565 ft 292 kts 358°
2026-04-23 21:03 43.26975 5.02256 9308 ft 291 kts 358°
2026-04-23 21:03 43.28989 5.02109 9063 ft 290 kts 358°
2026-04-23 21:03 43.31001 5.01962 8799 ft 289 kts 358°
2026-04-23 21:03 43.33002 5.01817 8543 ft 288 kts 358°
2026-04-23 21:04 43.35001 5.01863 8293 ft 287 kts
2026-04-23 21:04 43.36995 5.01964 8032 ft 286 kts
2026-04-23 21:04 43.38976 5.02058 7776 ft 285 kts
2026-04-23 21:04 43.40952 5.02135 7522 ft 284 kts 360°
2026-04-23 21:05 43.42897 5.01691 7272 ft 285 kts 343°
2026-04-23 21:05 43.44677 5.00511 6873 ft 287 kts 326°
2026-04-23 21:05 43.46179 4.98701 6393 ft 287 kts 316°
2026-04-23 21:05 43.47601 4.96791 5936 ft 285 kts 316°
2026-04-23 21:06 43.48539 4.95538 5671 ft 282 kts 316°
2026-04-23 21:06 43.50398 4.93055 5068 ft 280 kts 316°
2026-04-23 21:06 43.51775 4.91215 5002 ft 275 kts 316°
2026-04-23 21:06 43.53150 4.89380 5011 ft 275 kts 316°
2026-04-23 21:07 43.54508 4.87568 5004 ft 263 kts 316°
2026-04-23 21:07 43.55381 4.86429 5004 ft 249 kts 321°
2026-04-23 21:07 43.56845 4.85396 5009 ft 228 kts 350°
2026-04-23 21:07 43.58351 4.85433 5010 ft 211 kts 18°
2026-04-23 21:08 43.59628 4.86358 5010 ft 207 kts 44°
2026-04-23 21:08 43.60493 4.87916 5012 ft 205 kts 62°
2026-04-23 21:08 43.61207 4.89627 4938 ft 207 kts 61°
2026-04-23 21:08 43.61924 4.91333 4766 ft 205 kts 61°
2026-04-23 21:09 43.62392 4.93151 4613 ft 202 kts 88°
2026-04-23 21:09 43.62130 4.94997 4466 ft 192 kts 117°
2026-04-23 21:09 43.61292 4.96375 4332 ft 189 kts 135°
2026-04-23 21:09 43.60357 4.97653 4205 ft 189 kts 133°
2026-04-23 21:10 43.59437 4.98955 4106 ft 190 kts 133°
2026-04-23 21:10 43.58519 5.00269 3895 ft 190 kts 132°
2026-04-23 21:10 43.57600 5.01587 3652 ft 190 kts 132°
2026-04-23 21:10 43.56681 5.02904 3404 ft 191 kts 132°
2026-04-23 21:11 43.55763 5.04221 3151 ft 191 kts 132°
2026-04-23 21:11 43.54839 5.05544 2895 ft 191 kts 132°
2026-04-23 21:11 43.53922 5.06857 2640 ft 190 kts 133°
2026-04-23 21:11 43.53028 5.08137 2416 ft 179 kts 133°
2026-04-23 21:12 43.52204 5.09316 2170 ft 161 kts 133°
2026-04-23 21:12 43.51459 5.10381 1948 ft 147 kts 134°
2026-04-23 21:12 43.50769 5.11369 1753 ft 140 kts 133°
2026-04-23 21:12 43.50108 5.12313 1573 ft 137 kts 134°
2026-04-23 21:13 43.49443 5.13265 1383 ft 136 kts 134°
2026-04-23 21:13 43.48799 5.14184 1205 ft 135 kts 133°
2026-04-23 21:13 43.48150 5.15110 1026 ft 134 kts 133°
2026-04-23 21:13 43.47507 5.16028 846 ft 133 kts 134°
2026-04-23 21:14 43.46869 5.16939 676 ft 131 kts 134°
2026-04-23 21:14 43.46242 5.17833 500 ft 129 kts 134°
2026-04-23 21:14 43.45625 5.18713 327 ft 127 kts 134°
2026-04-23 21:14 43.45018 5.19579 161 ft 125 kts 134°
2026-04-23 21:15 43.44417 5.20433 31 ft 123 kts 135°
2026-04-23 21:15 43.43913 5.21151 28 ft 81 kts 133°
2026-04-23 21:15 43.43630 5.21566 41 ft 48 kts 135°
2026-04-23 21:15 43.43413 5.21876 48 ft 41 kts 133°
2026-04-23 21:16 43.43334 5.22084 52 ft 13 kts 90°
2026-04-23 21:16 43.43338 5.22208 53 ft 11 kts 78°
2026-04-23 21:16 43.43345 5.22233 52 ft 0 kts 64°
2026-04-23 21:17 43.43348 5.22240 52 ft 1 kts 60°
2026-04-23 21:17 43.43360 5.22259 54 ft 7 kts 42°
2026-04-23 21:18 43.43437 5.22266 51 ft 15 kts 335°
2026-04-23 21:18 43.43528 5.22195 50 ft 15 kts 330°
2026-04-23 21:18 43.43621 5.22122 47 ft 13 kts 329°
2026-04-23 21:18 43.43698 5.22144 46 ft 12 kts 54°
2026-04-23 21:19 43.43740 5.22203 46 ft 6 kts 43°
2026-04-23 21:19 43.43774 5.22226 43 ft 6 kts
2026-04-23 21:19 43.43816 5.22217 45 ft 3 kts 345°
2026-04-23 21:19 43.43837 5.22216 44 ft 2 kts 33°
2026-04-23 21:20 43.43850 5.22250 45 ft 6 kts 70°
2026-04-23 21:20 43.43859 5.22293 45 ft 3 kts 73°
2026-04-23 21:20 43.43863 5.22309 45 ft 1 kts 73°